Regional Weather Roundup
Issued by NWS Newport/Morehead, NC

Home | Current Version | Previous Version | Text Only | Print | Product List | Glossary On
Versions: 1 2 3 4 5 6 7 8 9 10 11 12 13 14 15 16 17 18 19 20 21 22 23 24 25 26 27 28 29 30 31 32 33 34 35 36 37 38 39 40 41 42 43 44 45 46 47 48 49 50
000
ASUS42 KMHX 031125
RWRMHX
WEATHER ROUNDUP FOR EASTERN NORTH CAROLINA
NATIONAL WEATHER SERVICE NEWPORT/MOREHEAD CITY NC
600 AM EST SAT DEC 03 2016

NOTE: "FAIR" INDICATES FEW OR NO CLOUDS BELOW 12,000 FEET
WITH NO SIGNIFICANT WEATHER AND/OR OBSTRUCTIONS TO VISIBILITY

NCZ015>017-031-032-045>047-102-103-031200-
NORTH COAST

CITY           SKY/WX    TMP DP  RH WIND       PRES   REMARKS
EDENTON        CLEAR     38  33  82 CALM      30.22S
ELIZABETH CITY CLEAR     36  31  82 NW9       30.20R
KITTY HAWK     SUNNY     42  34  73 CALM      30.18R
MANTEO         CLEAR     43  31  63 N15G21    30.20R

$$

NCZ045>047-081-094-103-104-031200-
CENTRAL COAST

CITY           SKY/WX    TMP DP  RH WIND       PRES   REMARKS
FRISCO         CLEAR     46  32  58 N9G22     30.18R

$$

NCZ095-097-098-100-101-031200-
SOUTHERN COAST

CITY           SKY/WX    TMP DP  RH WIND       PRES   REMARKS
BEAUFORT       NOT AVBL
CEDAR ISLAND   NOT AVBL
JACKSONVILLE   CLOUDY    41  33  73 N9        30.22R
PINEY ISLAND   SUNNY    N/A N/A N/A N12       30.20R
WILMINGTON     PTCLDY    40  33  76 N6        30.23R


$$

NCZ011>013-027>030-043-044-078>080-089-090>093-098-031200-
COASTAL PLAIN

CITY           SKY/WX    TMP DP  RH WIND       PRES   REMARKS
AHOSKIE        CLEAR     34  29  82 CALM      30.24R
CLINTON        CLOUDY    39  33  78 N6        30.25R
ELIZABETHTOWN  CLOUDY    37  33  85 CALM      30.24R
GOLDSBORO      CLEAR     40  29  66 NW5       30.22R
GREENVILLE     CLEAR     32  32 100 CALM      30.25R
HAVELOCK       CLEAR     42  33  70 N12       30.22R
KENANSVILLE    CLEAR     39  30  70 N8        30.24R
KINSTON          N/A     36  32  87 NW3       30.23S
NEW BERN       CLOUDY    39  32  76 N7        30.23R
RICHLANDS      CLOUDY    37  34  89 N7        30.23R
ROCKY MOUNT    CLEAR     35  29  78 W3        30.25
WASHINGTON     CLEAR     34  30  85 CALM      30.24R
WHITEVILLE     PTCLDY    42  32  67 N3        30.23R

$$

AMZ130-135-150-152-154-156-158-170-250-252-270-ANZ085-086-088-633-658-670-031200-
MARINE OBSERVATIONS

STATION/POSITION TIME  TEMP    WIND        PRES    WAVE   SWELL
                       AIR SEA DIR/SP/G            HT/PER HT/PER
                 (UTC) (F)     (DEG/KT/KT) (MB)    (FT/S) (FT/S)
CHESAPEAKE LIGHT NOT AVBL
64 E VA BEACH    1050   49 60  330/ 23/ 29 1019.7    8/ 7
DUCK             1100   43 56  320/ 18/ 19 1021.5
2 E DUCK         NOT AVBL
OREGON INLET     1100   44 55  320/ 11/ 18 1022.0
13E OREGON INLT  1100      61                N/A     6/ 6   2/ 9
HATTERAS CG      1100   47 58  340/ 24/ 30 1021.5
DIAMOND BUOY     1050   50 75  360/ 21/ 25 1020.9    6/ 6   2/16
CAPE LOOKOUT     1100   44     350/ 13/ 16 1022.2
BEAUFORT LAB     1100   43 56  360/ 10/ 16 1021.7
30 SE NEW RVR IN 1108   51 71   10/ 19/ 23 1022.7
30 SE NEW RVR IN NOT AVBL
27 SE WRIGHTSVLE 1108   52 69   30/ 21/ 31 1022.0
5 SE WRIGHTSVLE  1008   46 63   20/ 17/ 31 1022.4
225 S CAPE HAT   1050   65 74  340/ 16/ 19 1019.1    4/ 6   2/ 9
41 SE CHARLESTON 1050   60 75  360/ 16/ 19 1022.0    3/ 4   2/ 8

$$



USA.gov is the U.S. government's official web portal to all federal, state and local government web resources and services.